Tracking 19562 objects as of 24-Mar-2019
HD Live streaming from Space Station
objects crossing your sky now

NSS 5 (INTELSAT 803)

Track NSS 5 (INTELSAT 803) now!
NSS 5 (INTELSAT 803) is classified as:


NORAD ID: 24957
Int'l Code: 1997-053A
Perigee: 35,772.2 km
Apogee: 35,813.6 km
Inclination: 5.1 °
Period: 1,436.1 minutes
Semi major axis: 42163 km
RCS: 25.1188 m2 (large)
Launch date: September 23, 1997
Source: Netherlands (NETH)
Launch site: FRENCH GUIANA (FRGUI)

38 C-band, 6 Ku-band; Pacific Ocean region; shared capacity with Intelset.
aabbcc
Your satellite tracking list
Your tracking list is empty




NASA's NSSDC Master Catalog

Two Line Element Set (TLE):
1 24957U 97053A   19082.81315941  .00000086  00000-0  00000+0 0  9996
2 24957   5.0807  66.1200 0004909 318.0950 140.0269  1.00274921 78746
Source of the keplerian elements: AFSPC